User: anonymous   Login
Location: Newark
(54.6833°N, 25.2833°E)
Time: 12:12:20
(UTC+00:00)
Language:

Altair - Orbit

View from above orbital plane
View from above orbital plane
View from above satellite
View from above satellite

Ground track
Ground track

The orbit data is extracted from the following two-line orbital elements,

1 00050U 60009B   21020.76188808 -.00000072  00000-0  11739-3 0  9995
2 00050  47.2297 166.8177 0113537 253.1229 105.7085 12.20114528696753
Epoch (UTC): 20 January 2021 18:17:07
Eccentricity: 0.0113537
inclination: 47.2297°
perigee height: 1501 km
apogee height: 1682 km
right ascension of ascending node: 166.8177°
argument of perigee: 253.1229°
revolutions per day: 12.20114528
mean anomaly at epoch: 105.7085°
orbit number at epoch: 69675

The dashed part of the orbit path shows where the satellite is in the earth's shadow,  

DLR